Regional Weather Roundup
Issued by NWS

Home | Current Version | Previous Version | Graphics & Text | Print | Product List | Glossary On
Versions: 1 2 3 4 5 6 7 8 9 10 11 12 13 14 15 16 17 18 19 20 21 22 23 24 25 26 27 28 29 30 31 32 33 34 35 36 37 38 39 40 41 42 43 44 45 46 47 48 49 50
000
ASUS43 KOAX 211702
RWRNE

WEATHER ROUNDUP FOR NEBRASKA
NATIONAL WEATHER SERVICE OMAHA NE
1200 PM CDT MON AUG 21 2017

NOTES: SATELLITE DATA IS BEING USED TO AUGMENT CLOUD COVER ABOVE
       12000 FEET.
       "FAIR" INDICATES FEW OR NO CLOUDS BELOW 12,000 FEET WITH NO
       SIGNIFICANT WEATHER AND/OR OBSTRUCTIONS TO VISIBILITY.


NEZ001>004-019>022-054>056-211800-
NEBRASKA PANHANDLE

CITY           SKY/WX    TMP DP  RH WIND       PRES   REMARKS
SCOTTSBLUFF    SUNNY     81  56  42 NW10      30.08R
ALLIANCE       SUNNY     76  59  55 N22       30.06R
CHADRON        MOSUNNY   79  57  46 N10G21    30.07R
GORDON         PTSUNNY   76  62  62 N18G24    30.05R
KIMBALL        SUNNY     80  51  36 N15G22    30.13R
SIDNEY         SUNNY     84  53  34 N16       30.07R
$$

NEZ057>060-069>072-079>082-211800-
SOUTHWEST NEBRASKA

CITY           SKY/WX    TMP DP  RH WIND       PRES   REMARKS
NORTH PLATTE   SUNNY     82  70  66 S5        29.94F
IMPERIAL       SUNNY     83  64  52 VRB3      29.98R
LEXINGTON      SUNNY     83  67  59 S9        29.93F
MCCOOK         SUNNY     86  63  45 S13       29.95F
OGALLALA       MOSUNNY   76  69  78 NE3       30.00S
$$

NEZ005>010-023>029-035>040-094-211800-
NORTH CENTRAL NEBRASKA

CITY           SKY/WX    TMP DP  RH WIND       PRES   REMARKS
VALENTINE      LGT RAIN  64  60  87 N13       30.01R FOG
AINSWORTH      CLOUDY    73  73 100 NW6       29.98R FOG
BROKEN BOW     SUNNY     85  69  58 SW9       29.92F
O`NEILL        CLOUDY    75  72  91 SE3       29.92F
ORD            SUNNY     81  68  64 S10       29.91R
THEDFORD       CLOUDY    77  69  75 NW9       29.99R
$$

NEZ041-046>049-061>064-073>077-083>087-211800-
SOUTH CENTRAL NEBRASKA

CITY           SKY/WX    TMP DP  RH WIND       PRES   REMARKS
GRAND ISLAND   MOSUNNY   83  69  62 S13       29.94F
AURORA         PTSUNNY   81  70  69 S13       29.95F
HASTINGS       CLOUDY    81  66  60 S9G18     29.96F
HEBRON         CLOUDY    81  67  62 SE7       29.99R
HOLDREGE       MOSUNNY   82  65  55 S13G18    29.96S
KEARNEY        CLOUDY    83  67  58 S18       29.94F
$$

NEZ011>018-030>034-042>045-211800-
NORTHEAST NEBRASKA

CITY           SKY/WX    TMP DP  RH WIND       PRES   REMARKS
NORFOLK        SUNNY     80  70  71 S18       29.93S
ALBION         MOSUNNY   80  72  76 S13       29.92F
BLAIR          PTSUNNY   78  68  70 SE13G25   29.98F
FREMONT        MOSUNNY   79  68  68 SE17G26   29.97F
TEKAMAH        MOSUNNY   80  68  66 S15G26    29.96F
WAYNE          PTSUNNY   78  74  88 S23G29    29.93F
$$

NEZ050>053-065>068-078-088>093-211800-
SOUTHEAST NEBRASKA

CITY           SKY/WX    TMP DP  RH WIND       PRES   REMARKS
LINCOLN        MOSUNNY   80  71  74 SE13      29.98F
OMAHA EPPLEY   PTSUNNY   79  65  62 SE20      29.98F
BEATRICE       CLOUDY    80  70  71 SE12      29.98F
FALLS CITY     CLOUDY    75  72  90 E13       30.01F
NEBRASKA CITY  PTSUNNY   74  71  92 SE13      30.01F
PLATTSMOUTH    CLOUDY    77  67  72 SE16G25   30.00F
$$

NEZ044-045-051>053-067-211800-
OMAHA AREA

CITY           SKY/WX    TMP DP  RH WIND       PRES   REMARKS
OMAHA EPPLEY   PTSUNNY   79  65  62 SE20      29.98F
BLAIR          PTSUNNY   78  68  70 SE13G25   29.98F
FREMONT        MOSUNNY   79  68  68 SE17G26   29.97F
MILLARD        CLOUDY    79  69  71 S18       29.98F
OFFUTT AFB     MOSUNNY   78  67  68 SE14G24   29.98F
PLATTSMOUTH    CLOUDY    77  67  72 SE16G25   30.00F
WAHOO          FAIR      77  69  76 S22G31    29.97F
$$



USA.gov is the U.S. government's official web portal to all federal, state and local government web resources and services.